Time,TemperatureF,DewpointF,PressureIn,WindDirection,WindDirectionDegrees,WindSpeedMPH,WindSpeedGustMPH,Humidity,HourlyPrecipIn,Conditions,Clouds,dailyrainin,SoftwareType,DateUTC
2013-06-11 00:00:00,63.6,62.2,29.78,NW,304,0.0,0.0,95,0.00,,---,0.00,VWS V14.01,2013-06-11 04:00:00,
2013-06-11 00:01:00,63.7,62.2,29.77,NW,304,0.0,0.0,95,0.00,,---,0.00,VWS V14.01,2013-06-11 04:01:00,
2013-06-11 00:06:00,63.8,62.3,29.78,NW,304,0.0,0.0,95,0.00,,---,0.00,VWS V14.01,2013-06-11 04:06:00,
2013-06-11 00:11:00,64.0,62.5,29.78,NW,304,0.0,0.0,95,0.00,,---,0.00,VWS V14.01,2013-06-11 04:11:00,
2013-06-11 00:16:00,64.1,62.6,29.78,NW,304,0.0,0.0,95,0.00,,---,0.00,VWS V14.01,2013-06-11 04:16:00,
2013-06-11 00:21:00,64.1,62.6,29.78,NW,304,0.0,0.0,95,0.00,,---,0.00,VWS V14.01,2013-06-11 04:21:00,
2013-06-11 00:26:00,64.1,62.6,29.78,NW,304,0.0,0.0,95,0.00,,---,0.00,VWS V14.01,2013-06-11 04:26:00,
2013-06-11 00:31:00,64.1,62.6,29.78,NW,304,0.0,0.0,95,0.00,,---,0.00,VWS V14.01,2013-06-11 04:31:00,
2013-06-11 00:37:00,64.1,62.6,29.78,NW,304,0.0,0.0,95,0.00,,---,0.00,VWS V14.01,2013-06-11 04:37:00,
2013-06-11 00:42:00,64.1,62.6,29.78,NW,304,0.0,0.0,95,0.00,,---,0.00,VWS V14.01,2013-06-11 04:42:00,
2013-06-11 00:47:00,64.1,62.6,29.78,NW,304,0.0,0.0,95,0.00,,---,0.00,VWS V14.01,2013-06-11 04:47:00,
2013-06-11 00:52:00,64.1,62.6,29.78,NW,304,0.0,0.0,95,0.00,,---,0.00,VWS V14.01,2013-06-11 04:52:00,
2013-06-11 00:57:00,64.1,62.6,29.78,NW,304,0.0,0.0,95,0.00,,---,0.00,VWS V14.01,2013-06-11 04:57:00,
2013-06-11 01:02:00,64.1,62.6,29.78,NW,304,0.0,0.0,95,0.00,,---,0.00,VWS V14.01,2013-06-11 05:02:00,
2013-06-11 01:07:00,64.0,62.5,29.78,NW,304,0.0,0.0,95,0.00,,---,0.00,VWS V14.01,2013-06-11 05:07:00,
2013-06-11 01:12:00,64.1,62.6,29.78,NW,304,0.0,0.0,95,0.00,,---,0.00,VWS V14.01,2013-06-11 05:12:00,
2013-06-11 01:17:00,64.1,62.6,29.78,NW,304,0.0,0.0,95,0.00,,---,0.00,VWS V14.01,2013-06-11 05:17:00,
2013-06-11 01:22:00,64.1,62.6,29.78,NW,304,0.0,0.0,95,0.00,,---,0.00,VWS V14.01,2013-06-11 05:22:00,
2013-06-11 01:27:00,64.1,62.9,29.78,NW,304,0.0,0.0,96,0.00,,---,0.00,VWS V14.01,2013-06-11 05:27:00,
2013-06-11 01:32:00,64.2,63.0,29.78,NW,304,0.0,0.0,96,0.00,,---,0.00,VWS V14.01,2013-06-11 05:32:00,
2013-06-11 01:37:00,64.3,63.1,29.78,NW,304,1.0,1.0,96,0.00,,---,0.00,VWS V14.01,2013-06-11 05:37:00,
2013-06-11 01:42:00,64.4,63.2,29.78,SE,142,0.0,2.0,96,0.00,,---,0.00,VWS V14.01,2013-06-11 05:42:00,
2013-06-11 01:47:00,64.5,63.3,29.78,SSW,204,0.0,0.0,96,0.00,,---,0.00,VWS V14.01,2013-06-11 05:47:00,
2013-06-11 01:52:00,64.5,63.3,29.78,SSW,207,0.0,0.0,96,0.00,,---,0.00,VWS V14.01,2013-06-11 05:52:00,
2013-06-11 01:57:00,64.5,63.3,29.78,SSW,207,0.0,0.0,96,0.00,,---,0.00,VWS V14.01,2013-06-11 05:57:00,
2013-06-11 02:02:00,64.4,63.2,29.78,SSW,207,0.0,0.0,96,0.00,,---,0.00,VWS V14.01,2013-06-11 06:02:00,
2013-06-11 02:07:00,64.4,63.2,29.78,SSW,207,0.0,0.0,96,0.00,,---,0.00,VWS V14.01,2013-06-11 06:07:00,
2013-06-11 02:12:00,64.3,63.1,29.78,SSW,207,0.0,0.0,96,0.00,,---,0.00,VWS V14.01,2013-06-11 06:12:00,
2013-06-11 02:17:00,64.2,63.0,29.78,SSW,207,0.0,1.0,96,0.00,,---,0.00,VWS V14.01,2013-06-11 06:17:00,
2013-06-11 02:22:00,64.1,62.9,29.77,SSW,207,0.0,0.0,96,0.00,,---,0.00,VWS V14.01,2013-06-11 06:22:00,
2013-06-11 02:27:00,64.0,62.8,29.77,SE,131,0.0,2.0,96,0.00,,---,0.00,VWS V14.01,2013-06-11 06:27:00,
2013-06-11 02:32:00,63.9,62.7,29.77,SE,131,0.0,0.0,96,0.00,,---,0.00,VWS V14.01,2013-06-11 06:32:00,
2013-06-11 02:37:00,63.8,62.6,29.77,SSE,152,1.0,2.0,96,0.00,,---,0.00,VWS V14.01,2013-06-11 06:37:00,
2013-06-11 02:42:00,63.7,62.5,29.77,SSE,152,0.0,0.0,96,0.00,,---,0.00,VWS V14.01,2013-06-11 06:42:00,
2013-06-11 02:47:00,63.6,62.4,29.77,SSE,152,0.0,0.0,96,0.00,,---,0.00,VWS V14.01,2013-06-11 06:47:00,
2013-06-11 02:52:00,63.6,62.4,29.77,SSE,149,0.0,3.0,96,0.00,,---,0.00,VWS V14.01,2013-06-11 06:52:00,
2013-06-11 02:57:00,63.5,62.3,29.77,SSE,149,0.0,2.0,96,0.00,,---,0.00,VWS V14.01,2013-06-11 06:57:00,
2013-06-11 03:02:00,63.5,62.3,29.77,SSE,149,0.0,0.0,96,0.00,,---,0.00,VWS V14.01,2013-06-11 07:02:00,
2013-06-11 03:07:00,63.5,62.3,29.77,SSE,149,0.0,0.0,96,0.00,,---,0.00,VWS V14.01,2013-06-11 07:07:00,
2013-06-11 03:12:00,63.4,62.2,29.77,SSE,149,0.0,0.0,96,0.00,,---,0.00,VWS V14.01,2013-06-11 07:12:00,
2013-06-11 03:17:00,63.4,62.2,29.77,South,179,0.0,0.0,96,0.00,,---,0.00,VWS V14.01,2013-06-11 07:17:00,
2013-06-11 03:22:00,63.4,62.2,29.77,SSE,159,0.0,1.0,96,0.00,,---,0.00,VWS V14.01,2013-06-11 07:22:00,
2013-06-11 03:27:00,63.3,62.1,29.77,SSE,159,0.0,2.0,96,0.00,,---,0.00,VWS V14.01,2013-06-11 07:27:00,
2013-06-11 03:32:00,63.4,62.2,29.77,SSE,156,0.0,1.0,96,0.00,,---,0.00,VWS V14.01,2013-06-11 07:32:00,
2013-06-11 03:37:00,63.5,62.6,29.77,NW,314,0.0,3.0,97,0.00,,---,0.00,VWS V14.01,2013-06-11 07:37:00,
2013-06-11 03:42:00,63.6,62.7,29.76,NW,313,0.0,1.0,97,0.00,,---,0.00,VWS V14.01,2013-06-11 07:42:00,
2013-06-11 03:47:00,63.6,62.7,29.76,SSE,164,0.0,1.0,97,0.00,,---,0.00,VWS V14.01,2013-06-11 07:47:00,
2013-06-11 03:52:00,63.7,62.8,29.76,SE,136,0.0,0.0,97,0.00,,---,0.00,VWS V14.01,2013-06-11 07:52:00,
2013-06-11 03:57:00,63.7,62.8,29.77,SSE,159,0.0,1.0,97,0.00,,---,0.00,VWS V14.01,2013-06-11 07:57:00,
2013-06-11 04:02:00,63.8,62.9,29.77,NW,305,0.0,1.0,97,0.00,,---,0.00,VWS V14.01,2013-06-11 08:02:00,
2013-06-11 04:07:00,63.8,62.9,29.77,SE,146,0.0,4.0,97,0.00,,---,0.00,VWS V14.01,2013-06-11 08:07:00,
2013-06-11 04:12:00,63.9,63.0,29.77,South,170,0.0,2.0,97,0.00,,---,0.00,VWS V14.01,2013-06-11 08:12:00,
2013-06-11 04:17:00,63.9,63.0,29.76,SSE,168,0.0,1.0,97,0.00,,---,0.00,VWS V14.01,2013-06-11 08:17:00,
2013-06-11 04:22:00,63.9,63.0,29.76,SSE,168,0.0,0.0,97,0.00,,---,0.00,VWS V14.01,2013-06-11 08:22:00,
2013-06-11 04:27:00,64.0,63.1,29.77,SSE,168,0.0,0.0,97,0.00,,---,0.00,VWS V14.01,2013-06-11 08:27:00,
2013-06-11 04:32:00,64.0,63.1,29.77,SSE,168,0.0,0.0,97,0.00,,---,0.00,VWS V14.01,2013-06-11 08:32:00,
2013-06-11 04:37:00,64.0,63.1,29.77,SE,128,0.0,3.0,97,0.00,,---,0.00,VWS V14.01,2013-06-11 08:37:00,
2013-06-11 04:42:00,64.0,63.1,29.77,WSW,246,0.0,1.0,97,0.00,,---,0.00,VWS V14.01,2013-06-11 08:42:00,
2013-06-11 04:47:00,64.1,63.2,29.77,SSW,202,0.0,3.0,97,0.00,,---,0.00,VWS V14.01,2013-06-11 08:47:00,
2013-06-11 04:52:00,64.1,63.2,29.77,SSE,168,0.0,0.0,97,0.00,,---,0.00,VWS V14.01,2013-06-11 08:52:00,
2013-06-11 04:57:00,64.1,63.2,29.77,SSE,156,0.0,3.0,97,0.00,,---,0.00,VWS V14.01,2013-06-11 08:57:00,
2013-06-11 05:02:00,64.1,63.2,29.77,SSE,157,0.0,2.0,97,0.00,,---,0.00,VWS V14.01,2013-06-11 09:02:00,
2013-06-11 05:07:00,64.1,63.2,29.77,SE,136,0.0,1.0,97,0.00,,---,0.00,VWS V14.01,2013-06-11 09:07:00,
2013-06-11 05:12:00,64.1,63.2,29.77,SSE,156,0.0,3.0,97,0.00,,---,0.00,VWS V14.01,2013-06-11 09:12:00,
2013-06-11 05:17:00,64.1,63.2,29.77,SW,236,0.0,3.0,97,0.00,,---,0.00,VWS V14.01,2013-06-11 09:17:00,
2013-06-11 05:22:00,64.1,63.2,29.77,SE,144,0.0,1.0,97,0.00,,---,0.00,VWS V14.01,2013-06-11 09:22:00,
2013-06-11 05:27:00,64.1,63.2,29.77,West,262,1.0,4.0,97,0.00,,---,0.00,VWS V14.01,2013-06-11 09:27:00,
2013-06-11 05:32:00,64.1,63.2,29.77,SSW,195,0.0,3.0,97,0.00,,---,0.00,VWS V14.01,2013-06-11 09:32:00,
2013-06-11 05:37:00,64.1,63.2,29.78,NW,314,0.0,3.0,97,0.00,,---,0.00,VWS V14.01,2013-06-11 09:37:00,
2013-06-11 05:42:00,64.1,63.2,29.78,SSW,200,0.0,1.0,97,0.00,,---,0.00,VWS V14.01,2013-06-11 09:42:00,
2013-06-11 05:47:00,64.1,63.2,29.78,SSE,160,0.0,5.0,97,0.00,,---,0.00,VWS V14.01,2013-06-11 09:47:00,
2013-06-11 05:52:00,64.2,63.3,29.78,SW,224,0.0,1.0,97,0.00,,---,0.00,VWS V14.01,2013-06-11 09:52:00,
2013-06-11 05:57:00,64.2,63.3,29.78,SW,215,0.0,1.0,97,0.00,,---,0.00,VWS V14.01,2013-06-11 09:57:00,
2013-06-11 06:02:00,64.2,63.3,29.78,ENE,76,0.0,1.0,97,0.00,,---,0.00,VWS V14.01,2013-06-11 10:02:00,
2013-06-11 06:07:00,64.2,63.3,29.78,SW,236,0.0,2.0,97,0.00,,---,0.00,VWS V14.01,2013-06-11 10:07:00,
2013-06-11 06:12:00,64.2,63.3,29.79,WSW,238,0.0,1.0,97,0.00,,---,0.00,VWS V14.01,2013-06-11 10:12:00,
2013-06-11 06:17:00,64.3,63.4,29.79,South,186,0.0,1.0,97,0.00,,---,0.00,VWS V14.01,2013-06-11 10:17:00,
2013-06-11 06:22:00,64.3,63.4,29.80,SSW,209,0.0,0.0,97,0.00,,---,0.00,VWS V14.01,2013-06-11 10:22:00,
2013-06-11 06:27:00,64.3,63.4,29.79,SSW,209,0.0,0.0,97,0.00,,---,0.00,VWS V14.01,2013-06-11 10:27:00,
2013-06-11 06:32:00,64.4,63.5,29.79,South,169,0.0,0.0,97,0.00,,---,0.00,VWS V14.01,2013-06-11 10:32:00,
2013-06-11 06:37:00,64.5,63.6,29.79,WNW,290,0.0,2.0,97,0.00,,---,0.00,VWS V14.01,2013-06-11 10:37:00,
2013-06-11 06:42:00,64.5,63.6,29.79,WSW,255,0.0,2.0,97,0.00,,---,0.00,VWS V14.01,2013-06-11 10:42:00,
2013-06-11 06:47:00,64.5,63.6,29.79,SE,140,0.0,1.0,97,0.00,,---,0.00,VWS V14.01,2013-06-11 10:47:00,
2013-06-11 06:52:00,64.5,63.6,29.79,North,5,2.0,2.0,97,0.00,,---,0.00,VWS V14.01,2013-06-11 10:52:00,
2013-06-11 06:57:00,64.6,63.7,29.80,SSE,161,0.0,3.0,97,0.00,,---,0.00,VWS V14.01,2013-06-11 10:57:00,
2013-06-11 07:02:00,64.6,63.7,29.79,SSE,161,0.0,0.0,97,0.00,,---,0.00,VWS V14.01,2013-06-11 11:02:00,
2013-06-11 07:07:00,64.7,63.8,29.80,SSE,149,0.0,0.0,97,0.00,,---,0.00,VWS V14.01,2013-06-11 11:07:00,
2013-06-11 07:12:00,64.8,63.9,29.80,SSE,149,0.0,0.0,97,0.00,,---,0.00,VWS V14.01,2013-06-11 11:12:00,
2013-06-11 07:18:00,64.9,64.0,29.80,South,190,3.0,3.0,97,0.00,,---,0.00,VWS V14.01,2013-06-11 11:18:00,
2013-06-11 07:23:00,64.9,64.0,29.80,WNW,289,0.0,2.0,97,0.00,,---,0.00,VWS V14.01,2013-06-11 11:23:00,
2013-06-11 07:28:00,64.9,64.0,29.81,WNW,286,0.0,3.0,97,0.00,,---,0.00,VWS V14.01,2013-06-11 11:28:00,
2013-06-11 07:33:00,64.9,64.0,29.81,WNW,286,0.0,0.0,97,0.00,,---,0.00,VWS V14.01,2013-06-11 11:33:00,
2013-06-11 07:38:00,64.9,64.0,29.80,South,186,1.0,4.0,97,0.00,,---,0.00,VWS V14.01,2013-06-11 11:38:00,
2013-06-11 07:43:00,64.9,64.0,29.80,South,178,0.0,2.0,97,0.00,,---,0.00,VWS V14.01,2013-06-11 11:43:00,
2013-06-11 07:48:00,65.0,64.1,29.80,West,267,0.0,3.0,97,0.00,,---,0.00,VWS V14.01,2013-06-11 11:48:00,
2013-06-11 07:53:00,65.0,64.1,29.81,West,265,0.0,1.0,97,0.00,,---,0.00,VWS V14.01,2013-06-11 11:53:00,
2013-06-11 07:58:00,65.0,64.1,29.81,ENE,57,0.0,3.0,97,0.00,,---,0.00,VWS V14.01,2013-06-11 11:58:00,
2013-06-11 08:03:00,65.1,64.2,29.81,SSE,148,0.0,5.0,97,0.00,,---,0.00,VWS V14.01,2013-06-11 12:03:00,
2013-06-11 08:08:00,65.1,64.2,29.81,South,169,1.0,1.0,97,0.01,,---,0.01,VWS V14.01,2013-06-11 12:08:00,
2013-06-11 08:13:00,65.2,64.3,29.81,South,170,0.0,1.0,97,0.02,,---,0.02,VWS V14.01,2013-06-11 12:13:00,
2013-06-11 08:18:00,65.2,64.3,29.81,South,169,0.0,2.0,97,0.02,,---,0.02,VWS V14.01,2013-06-11 12:18:00,
2013-06-11 08:23:00,65.3,64.4,29.81,South,188,0.0,3.0,97,0.02,,---,0.02,VWS V14.01,2013-06-11 12:23:00,
2013-06-11 08:28:00,65.4,64.5,29.81,SSE,155,0.0,2.0,97,0.02,,---,0.02,VWS V14.01,2013-06-11 12:28:00,
2013-06-11 08:33:00,65.4,64.5,29.81,SE,139,0.0,2.0,97,0.02,,---,0.02,VWS V14.01,2013-06-11 12:33:00,
2013-06-11 08:38:00,65.5,64.6,29.82,ENE,68,0.0,1.0,97,0.02,,---,0.02,VWS V14.01,2013-06-11 12:38:00,
2013-06-11 08:43:00,65.6,64.7,29.82,ENE,61,0.0,0.0,97,0.03,,---,0.03,VWS V14.01,2013-06-11 12:43:00,
2013-06-11 08:48:00,65.6,64.7,29.82,South,184,0.0,1.0,97,0.03,,---,0.03,VWS V14.01,2013-06-11 12:48:00,
2013-06-11 08:53:00,65.6,64.7,29.82,SW,215,0.0,4.0,97,0.03,,---,0.03,VWS V14.01,2013-06-11 12:53:00,
2013-06-11 08:58:00,65.7,64.8,29.82,WSW,256,0.0,3.0,97,0.03,,---,0.03,VWS V14.01,2013-06-11 12:58:00,
2013-06-11 09:03:00,65.7,64.8,29.82,WSW,256,0.0,1.0,97,0.03,,---,0.03,VWS V14.01,2013-06-11 13:03:00,
2013-06-11 09:08:00,65.7,64.8,29.82,WSW,256,0.0,1.0,97,0.03,,---,0.03,VWS V14.01,2013-06-11 13:08:00,
2013-06-11 09:13:00,65.7,64.8,29.82,WSW,256,0.0,2.0,97,0.01,,---,0.03,VWS V14.01,2013-06-11 13:13:00,
2013-06-11 09:18:00,65.7,64.8,29.83,WSW,256,0.0,1.0,97,0.01,,---,0.03,VWS V14.01,2013-06-11 13:18:00,
2013-06-11 09:23:00,65.7,64.8,29.83,NNW,336,0.0,3.0,97,0.01,,---,0.03,VWS V14.01,2013-06-11 13:23:00,
2013-06-11 09:28:00,65.7,64.8,29.83,SW,227,0.0,1.0,97,0.01,,---,0.03,VWS V14.01,2013-06-11 13:28:00,
2013-06-11 09:33:00,65.6,64.7,29.83,SW,227,0.0,0.0,97,0.01,,---,0.03,VWS V14.01,2013-06-11 13:33:00,
2013-06-11 09:38:00,65.6,64.7,29.83,South,188,0.0,2.0,97,0.01,,---,0.03,VWS V14.01,2013-06-11 13:38:00,
2013-06-11 09:43:00,65.7,64.8,29.83,West,279,0.0,3.0,97,0.02,,---,0.04,VWS V14.01,2013-06-11 13:43:00,
2013-06-11 09:48:00,65.7,64.8,29.83,NW,324,0.0,3.0,97,0.01,,---,0.04,VWS V14.01,2013-06-11 13:48:00,
2013-06-11 09:53:00,65.7,64.8,29.83,SSE,158,0.0,3.0,97,0.01,,---,0.04,VWS V14.01,2013-06-11 13:53:00,
2013-06-11 09:58:00,65.6,64.7,29.83,WSW,248,0.0,2.0,97,0.01,,---,0.04,VWS V14.01,2013-06-11 13:58:00,
2013-06-11 10:03:00,65.7,64.8,29.83,ESE,102,1.0,3.0,97,0.01,,---,0.04,VWS V14.01,2013-06-11 14:03:00,
2013-06-11 10:08:00,65.8,64.9,29.83,North,360,0.0,2.0,97,0.01,,---,0.04,VWS V14.01,2013-06-11 14:08:00,
2013-06-11 10:13:00,65.9,65.0,29.83,NW,321,0.0,3.0,97,0.01,,---,0.04,VWS V14.01,2013-06-11 14:13:00,
2013-06-11 10:18:00,66.1,65.2,29.83,NW,321,0.0,0.0,97,0.01,,---,0.04,VWS V14.01,2013-06-11 14:18:00,
2013-06-11 10:23:00,66.1,65.2,29.83,South,175,3.0,3.0,97,0.01,,---,0.04,VWS V14.01,2013-06-11 14:23:00,
2013-06-11 10:28:00,66.2,65.3,29.83,NW,310,0.0,2.0,97,0.01,,---,0.04,VWS V14.01,2013-06-11 14:28:00,
2013-06-11 10:33:00,66.3,65.4,29.83,SE,130,0.0,2.0,97,0.02,,---,0.05,VWS V14.01,2013-06-11 14:33:00,
2013-06-11 10:38:00,66.4,65.5,29.83,SSE,150,0.0,0.0,97,0.03,,---,0.06,VWS V14.01,2013-06-11 14:38:00,
2013-06-11 10:43:00,66.4,65.5,29.82,SE,126,0.0,2.0,97,0.03,,---,0.06,VWS V14.01,2013-06-11 14:43:00,
2013-06-11 10:48:00,66.7,66.1,29.82,SE,142,0.0,0.0,98,0.02,,---,0.06,VWS V14.01,2013-06-11 14:48:00,
2013-06-11 10:53:00,66.8,65.9,29.83,NNE,12,0.0,6.0,97,0.02,,---,0.06,VWS V14.01,2013-06-11 14:53:00,
2013-06-11 10:58:00,67.0,66.1,29.83,NNW,347,0.0,3.0,97,0.02,,---,0.06,VWS V14.01,2013-06-11 14:58:00,
2013-06-11 11:03:00,67.2,66.6,29.83,WSW,238,0.0,3.0,98,0.02,,---,0.06,VWS V14.01,2013-06-11 15:03:00,
2013-06-11 11:08:00,67.5,66.9,29.83,WSW,248,0.0,1.0,98,0.02,,---,0.06,VWS V14.01,2013-06-11 15:08:00,
2013-06-11 11:13:00,67.7,67.1,29.83,South,185,0.0,2.0,98,0.02,,---,0.06,VWS V14.01,2013-06-11 15:13:00,
2013-06-11 11:18:00,67.9,67.3,29.83,SSW,209,0.0,2.0,98,0.02,,---,0.06,VWS V14.01,2013-06-11 15:18:00,
2013-06-11 11:23:00,67.9,67.0,29.83,SSE,161,0.0,4.0,97,0.02,,---,0.06,VWS V14.01,2013-06-11 15:23:00,
2013-06-11 11:28:00,67.9,67.0,29.83,WSW,257,1.0,2.0,97,0.02,,---,0.06,VWS V14.01,2013-06-11 15:28:00,
2013-06-11 11:33:00,67.9,67.0,29.83,WSW,257,0.0,1.0,97,0.02,,---,0.06,VWS V14.01,2013-06-11 15:33:00,
2013-06-11 11:38:00,67.8,66.9,29.83,SE,134,0.0,1.0,97,0.01,,---,0.06,VWS V14.01,2013-06-11 15:38:00,
2013-06-11 11:43:00,67.9,67.0,29.84,SE,138,0.0,1.0,97,0.00,,---,0.06,VWS V14.01,2013-06-11 15:43:00,
2013-06-11 11:48:00,67.9,67.0,29.84,SSW,194,1.0,1.0,97,0.00,,---,0.06,VWS V14.01,2013-06-11 15:48:00,
2013-06-11 11:53:00,67.8,66.9,29.83,South,187,0.0,1.0,97,0.00,,---,0.06,VWS V14.01,2013-06-11 15:53:00,
2013-06-11 11:58:00,68.0,67.1,29.84,South,187,0.0,1.0,97,0.00,,---,0.06,VWS V14.01,2013-06-11 15:58:00,
2013-06-11 12:03:00,68.2,67.3,29.84,SSW,199,0.0,1.0,97,0.00,,---,0.06,VWS V14.01,2013-06-11 16:03:00,
2013-06-11 12:08:00,68.3,67.4,29.84,SSW,192,0.0,2.0,97,0.00,,---,0.06,VWS V14.01,2013-06-11 16:08:00,
2013-06-11 12:13:00,68.4,67.5,29.84,West,259,0.0,2.0,97,0.02,,---,0.08,VWS V14.01,2013-06-11 16:13:00,
2013-06-11 12:18:00,68.4,67.5,29.84,West,259,0.0,1.0,97,0.04,,---,0.10,VWS V14.01,2013-06-11 16:18:00,
2013-06-11 12:23:00,68.2,67.3,29.84,WNW,298,0.0,4.0,97,0.05,,---,0.11,VWS V14.01,2013-06-11 16:23:00,
2013-06-11 12:28:00,68.0,67.1,29.84,SSW,202,0.0,2.0,97,0.06,,---,0.12,VWS V14.01,2013-06-11 16:28:00,
2013-06-11 12:33:00,67.8,66.9,29.84,SSW,206,0.0,1.0,97,0.06,,---,0.12,VWS V14.01,2013-06-11 16:33:00,
2013-06-11 12:38:00,67.9,67.0,29.83,SSW,192,0.0,1.0,97,0.06,,---,0.12,VWS V14.01,2013-06-11 16:38:00,
2013-06-11 12:43:00,68.2,67.3,29.83,South,188,0.0,2.0,97,0.06,,---,0.12,VWS V14.01,2013-06-11 16:43:00,
2013-06-11 12:48:00,68.6,67.7,29.83,WSW,247,0.0,3.0,97,0.06,,---,0.12,VWS V14.01,2013-06-11 16:48:00,
2013-06-11 12:53:00,68.7,67.8,29.83,WSW,258,0.0,5.0,97,0.06,,---,0.12,VWS V14.01,2013-06-11 16:53:00,
2013-06-11 12:58:00,68.9,68.0,29.83,NW,317,0.0,3.0,97,0.06,,---,0.12,VWS V14.01,2013-06-11 16:58:00,
2013-06-11 13:03:00,69.1,68.2,29.83,SSW,202,0.0,3.0,97,0.06,,---,0.12,VWS V14.01,2013-06-11 17:03:00,
2013-06-11 13:08:00,69.2,68.3,29.84,WNW,295,0.0,3.0,97,0.06,,---,0.12,VWS V14.01,2013-06-11 17:08:00,
2013-06-11 13:13:00,69.8,69.2,29.84,NW,315,0.0,7.0,98,0.05,,---,0.12,VWS V14.01,2013-06-11 17:13:00,
2013-06-11 13:18:00,70.1,69.2,29.84,SW,228,0.0,7.0,97,0.04,,---,0.12,VWS V14.01,2013-06-11 17:18:00,
2013-06-11 13:23:00,70.2,69.3,29.84,NW,315,1.0,2.0,97,0.01,,---,0.12,VWS V14.01,2013-06-11 17:23:00,
2013-06-11 13:28:00,70.3,69.4,29.84,NNW,329,5.0,5.0,97,0.01,,---,0.12,VWS V14.01,2013-06-11 17:28:00,
2013-06-11 13:33:00,70.4,69.5,29.84,NNW,338,0.0,1.0,97,0.00,,---,0.12,VWS V14.01,2013-06-11 17:33:00,
2013-06-11 13:38:00,70.6,69.7,29.84,WNW,292,0.0,3.0,97,0.00,,---,0.12,VWS V14.01,2013-06-11 17:38:00,
2013-06-11 13:43:00,70.7,69.5,29.84,WNW,286,4.0,4.0,96,0.00,,---,0.12,VWS V14.01,2013-06-11 17:43:00,
2013-06-11 13:48:00,70.6,69.4,29.83,SSE,158,0.0,5.0,96,0.00,,---,0.12,VWS V14.01,2013-06-11 17:48:00,
2013-06-11 13:53:00,71.0,70.1,29.83,WNW,295,0.0,4.0,97,0.00,,---,0.12,VWS V14.01,2013-06-11 17:53:00,
2013-06-11 13:58:00,71.2,70.0,29.83,SSW,204,0.0,4.0,96,0.00,,---,0.12,VWS V14.01,2013-06-11 17:58:00,
2013-06-11 14:03:00,71.8,70.6,29.83,NW,308,1.0,6.0,96,0.00,,---,0.12,VWS V14.01,2013-06-11 18:03:00,
2013-06-11 14:08:00,72.0,70.5,29.83,ESE,123,0.0,2.0,95,0.00,,---,0.12,VWS V14.01,2013-06-11 18:08:00,
2013-06-11 14:13:00,72.1,70.3,29.83,SE,130,0.0,2.0,94,0.00,,---,0.12,VWS V14.01,2013-06-11 18:13:00,
2013-06-11 14:18:00,72.4,70.6,29.83,NW,309,0.0,5.0,94,0.00,,---,0.12,VWS V14.01,2013-06-11 18:18:00,
2013-06-11 14:23:00,72.7,70.9,29.83,SSW,196,0.0,3.0,94,0.00,,---,0.12,VWS V14.01,2013-06-11 18:23:00,
2013-06-11 14:28:00,72.7,70.6,29.83,WNW,293,0.0,5.0,93,0.00,,---,0.12,VWS V14.01,2013-06-11 18:28:00,
2013-06-11 14:33:00,72.7,69.9,29.83,West,259,0.0,3.0,91,0.00,,---,0.12,VWS V14.01,2013-06-11 18:33:00,
2013-06-11 14:38:00,72.7,69.6,29.84,West,259,0.0,0.0,90,0.00,,---,0.12,VWS V14.01,2013-06-11 18:38:00,
2013-06-11 14:43:00,72.7,69.6,29.84,WSW,248,0.0,4.0,90,0.00,,---,0.12,VWS V14.01,2013-06-11 18:43:00,
2013-06-11 14:48:00,73.0,69.6,29.83,NW,319,0.0,4.0,89,0.00,,---,0.12,VWS V14.01,2013-06-11 18:48:00,
2013-06-11 14:53:00,73.2,69.8,29.83,WNW,288,0.0,4.0,89,0.00,,---,0.12,VWS V14.01,2013-06-11 18:53:00,
2013-06-11 14:58:00,73.8,70.0,29.83,South,183,0.0,4.0,88,0.00,,---,0.12,VWS V14.01,2013-06-11 18:58:00,
2013-06-11 15:03:00,74.2,69.8,29.83,West,280,1.0,7.0,86,0.00,,---,0.12,VWS V14.01,2013-06-11 19:03:00,
2013-06-11 15:08:00,74.2,68.7,29.84,SW,219,0.0,6.0,83,0.00,,---,0.12,VWS V14.01,2013-06-11 19:08:00,
2013-06-11 15:13:00,74.3,69.2,29.84,SSE,160,0.0,3.0,84,0.00,,---,0.12,VWS V14.01,2013-06-11 19:13:00,
2013-06-11 15:18:00,74.3,68.4,29.84,North,355,1.0,11.0,82,0.00,,---,0.12,VWS V14.01,2013-06-11 19:18:00,
2013-06-11 15:23:00,74.7,69.6,29.84,West,269,1.0,3.0,84,0.00,,---,0.12,VWS V14.01,2013-06-11 19:23:00,
2013-06-11 15:28:00,74.9,69.0,29.84,NW,319,1.0,10.0,82,0.00,,---,0.12,VWS V14.01,2013-06-11 19:28:00,
2013-06-11 15:33:00,75.2,69.0,29.84,SSW,196,1.0,5.0,81,0.00,,---,0.12,VWS V14.01,2013-06-11 19:33:00,
2013-06-11 15:38:00,75.5,68.5,29.84,SSE,167,2.0,2.0,79,0.00,,---,0.12,VWS V14.01,2013-06-11 19:38:00,
2013-06-11 15:43:00,76.0,69.4,29.83,NW,306,3.0,3.0,80,0.00,,---,0.12,VWS V14.01,2013-06-11 19:43:00,
2013-06-11 15:48:00,76.6,70.0,29.83,SSE,165,1.0,3.0,80,0.00,,---,0.12,VWS V14.01,2013-06-11 19:48:00,
2013-06-11 15:53:00,77.1,70.1,29.83,WNW,291,1.0,5.0,79,0.00,,---,0.12,VWS V14.01,2013-06-11 19:53:00,
2013-06-11 15:58:00,78.0,71.3,29.83,WSW,244,0.0,3.0,80,0.00,,---,0.12,VWS V14.01,2013-06-11 19:58:00,
2013-06-11 16:03:00,78.7,71.3,29.83,WNW,286,2.0,5.0,78,0.00,,---,0.12,VWS V14.01,2013-06-11 20:03:00,
2013-06-11 16:08:00,79.3,70.7,29.83,NE,45,1.0,6.0,75,0.00,,---,0.12,VWS V14.01,2013-06-11 20:08:00,
2013-06-11 16:13:00,79.5,68.9,29.83,WSW,240,2.0,4.0,70,0.00,,---,0.12,VWS V14.01,2013-06-11 20:13:00,
2013-06-11 16:18:00,79.4,68.3,29.83,WNW,286,0.0,6.0,69,0.00,,---,0.12,VWS V14.01,2013-06-11 20:18:00,
2013-06-11 16:23:00,79.4,69.2,29.82,NNW,330,1.0,3.0,71,0.00,,---,0.12,VWS V14.01,2013-06-11 20:23:00,
2013-06-11 16:28:00,79.3,68.7,29.82,West,274,0.0,5.0,70,0.00,,---,0.12,VWS V14.01,2013-06-11 20:28:00,
2013-06-11 16:33:00,78.9,67.9,29.82,West,259,0.0,3.0,69,0.00,,---,0.12,VWS V14.01,2013-06-11 20:33:00,
2013-06-11 16:38:00,78.8,68.6,29.82,WSW,252,0.0,2.0,71,0.00,,---,0.12,VWS V14.01,2013-06-11 20:38:00,
2013-06-11 16:43:00,79.0,68.8,29.82,West,267,2.0,6.0,71,0.00,,---,0.12,VWS V14.01,2013-06-11 20:43:00,
2013-06-11 16:48:00,79.2,69.0,29.82,SSW,202,1.0,4.0,71,0.00,,---,0.12,VWS V14.01,2013-06-11 20:48:00,
2013-06-11 16:53:00,79.5,69.3,29.82,NNW,330,0.0,4.0,71,0.00,,---,0.12,VWS V14.01,2013-06-11 20:53:00,
2013-06-11 16:58:00,79.8,68.7,29.82,South,171,0.0,7.0,69,0.00,,---,0.12,VWS V14.01,2013-06-11 20:58:00,
2013-06-11 17:03:00,79.9,68.8,29.83,WSW,249,1.0,6.0,69,0.00,,---,0.12,VWS V14.01,2013-06-11 21:03:00,
2013-06-11 17:08:00,79.7,67.3,29.83,SW,225,1.0,4.0,66,0.00,,---,0.12,VWS V14.01,2013-06-11 21:08:00,
2013-06-11 17:13:00,79.8,68.3,29.82,NW,312,2.0,4.0,68,0.00,,---,0.12,VWS V14.01,2013-06-11 21:13:00,
2013-06-11 17:18:00,79.8,67.9,29.83,NW,307,2.0,5.0,67,0.00,,---,0.12,VWS V14.01,2013-06-11 21:18:00,
2013-06-11 17:23:00,79.6,67.2,29.82,South,173,2.0,4.0,66,0.00,,---,0.12,VWS V14.01,2013-06-11 21:23:00,
2013-06-11 17:28:00,79.5,67.6,29.83,WNW,302,0.0,4.0,67,0.00,,---,0.12,VWS V14.01,2013-06-11 21:28:00,
2013-06-11 17:33:00,79.5,68.0,29.82,WSW,240,1.0,5.0,68,0.00,,---,0.12,VWS V14.01,2013-06-11 21:33:00,
2013-06-11 17:38:00,79.6,69.0,29.83,West,259,0.0,3.0,70,0.00,,---,0.12,VWS V14.01,2013-06-11 21:38:00,
2013-06-11 17:43:00,79.4,67.1,29.83,East,97,0.0,6.0,66,0.00,,---,0.12,VWS V14.01,2013-06-11 21:43:00,
2013-06-11 17:48:00,79.3,66.5,29.82,SSW,198,0.0,6.0,65,0.00,,---,0.12,VWS V14.01,2013-06-11 21:48:00,
2013-06-11 17:53:00,79.1,66.8,29.82,West,265,1.0,3.0,66,0.00,,---,0.12,VWS V14.01,2013-06-11 21:53:00,
2013-06-11 17:58:00,79.0,66.7,29.83,WNW,288,0.0,5.0,66,0.00,,---,0.12,VWS V14.01,2013-06-11 21:58:00,
2013-06-11 18:03:00,78.9,67.0,29.82,WSW,246,0.0,3.0,67,0.00,,---,0.12,VWS V14.01,2013-06-11 22:03:00,
2013-06-11 18:08:00,78.8,67.4,29.83,SSE,153,1.0,5.0,68,0.00,,---,0.12,VWS V14.01,2013-06-11 22:08:00,
2013-06-11 18:13:00,78.6,67.2,29.82,NW,320,1.0,4.0,68,0.00,,---,0.12,VWS V14.01,2013-06-11 22:13:00,
2013-06-11 18:18:00,78.5,67.5,29.83,SW,226,0.0,7.0,69,0.00,,---,0.12,VWS V14.01,2013-06-11 22:18:00,
2013-06-11 18:23:00,78.4,67.0,29.83,NNW,328,1.0,4.0,68,0.00,,---,0.12,VWS V14.01,2013-06-11 22:23:00,
2013-06-11 18:28:00,78.4,67.4,29.83,WNW,291,0.0,11.0,69,0.00,,---,0.12,VWS V14.01,2013-06-11 22:28:00,
2013-06-11 18:33:00,78.2,68.0,29.83,WNW,291,0.0,2.0,71,0.00,,---,0.12,VWS V14.01,2013-06-11 22:33:00,
2013-06-11 18:38:00,78.0,67.4,29.82,West,281,0.0,3.0,70,0.00,,---,0.12,VWS V14.01,2013-06-11 22:38:00,
2013-06-11 18:43:00,78.0,68.2,29.82,South,178,0.0,4.0,72,0.00,,---,0.12,VWS V14.01,2013-06-11 22:43:00,
2013-06-11 18:48:00,77.8,67.7,29.82,SE,145,3.0,3.0,71,0.00,,---,0.12,VWS V14.01,2013-06-11 22:48:00,
2013-06-11 18:53:00,77.4,67.3,29.82,West,277,0.0,7.0,71,0.00,,---,0.12,VWS V14.01,2013-06-11 22:53:00,
2013-06-11 18:58:00,77.2,67.9,29.82,ENE,64,1.0,4.0,73,0.00,,---,0.12,VWS V14.01,2013-06-11 22:58:00,
2013-06-11 19:03:00,76.9,66.8,29.82,WSW,243,0.0,6.0,71,0.00,,---,0.12,VWS V14.01,2013-06-11 23:03:00,
2013-06-11 19:08:00,76.7,67.0,29.82,SSE,160,0.0,3.0,72,0.00,,---,0.12,VWS V14.01,2013-06-11 23:08:00,
2013-06-11 19:13:00,76.6,67.3,29.83,SSW,208,1.0,1.0,73,0.00,,---,0.12,VWS V14.01,2013-06-11 23:13:00,
2013-06-11 19:18:00,76.4,67.5,29.83,East,100,0.0,2.0,74,0.00,,---,0.12,VWS V14.01,2013-06-11 23:18:00,
2013-06-11 19:23:00,76.3,67.4,29.83,North,355,0.0,2.0,74,0.00,,---,0.12,VWS V14.01,2013-06-11 23:23:00,
2013-06-11 19:28:00,76.1,67.2,29.83,WSW,257,0.0,3.0,74,0.00,,---,0.12,VWS V14.01,2013-06-11 23:28:00,
2013-06-11 19:33:00,75.9,67.0,29.83,WSW,246,0.0,1.0,74,0.00,,---,0.12,VWS V14.01,2013-06-11 23:33:00,
2013-06-11 19:38:00,75.7,66.8,29.83,SE,134,0.0,3.0,74,0.00,,---,0.12,VWS V14.01,2013-06-11 23:38:00,
2013-06-11 19:43:00,75.4,66.2,29.83,South,171,0.0,4.0,73,0.00,,---,0.12,VWS V14.01,2013-06-11 23:43:00,
2013-06-11 19:48:00,75.2,66.3,29.83,South,171,0.0,0.0,74,0.00,,---,0.12,VWS V14.01,2013-06-11 23:48:00,
2013-06-11 19:53:00,74.9,66.1,29.84,SSE,154,0.0,2.0,74,0.00,,---,0.12,VWS V14.01,2013-06-11 23:53:00,
2013-06-11 19:58:00,74.7,65.9,29.83,WNW,282,0.0,2.0,74,0.00,,---,0.12,VWS V14.01,2013-06-11 23:58:00,
2013-06-11 20:03:00,74.4,66.0,29.84,WNW,282,0.0,0.0,75,0.00,,---,0.12,VWS V14.01,2013-06-12 00:03:00,
2013-06-11 20:08:00,74.2,66.2,29.84,WNW,282,0.0,1.0,76,0.00,,---,0.12,VWS V14.01,2013-06-12 00:08:00,
2013-06-11 20:13:00,73.9,66.2,29.84,WNW,282,0.0,0.0,77,0.00,,---,0.12,VWS V14.01,2013-06-12 00:13:00,
2013-06-11 20:18:00,73.6,66.3,29.84,WNW,282,0.0,0.0,78,0.00,,---,0.12,VWS V14.01,2013-06-12 00:18:00,
2013-06-11 20:23:00,73.2,66.3,29.84,WNW,282,0.0,0.0,79,0.00,,---,0.12,VWS V14.01,2013-06-12 00:23:00,
2013-06-11 20:28:00,72.9,66.4,29.84,WNW,282,0.0,0.0,80,0.00,,---,0.12,VWS V14.01,2013-06-12 00:28:00,
2013-06-11 20:33:00,72.4,65.9,29.84,WNW,282,0.0,0.0,80,0.00,,---,0.12,VWS V14.01,2013-06-12 00:33:00,
2013-06-11 21:00:00,70.3,64.9,29.84,WNW,282,0.0,0.0,83,0.00,,---,0.12,VWS V14.01,2013-06-12 01:00:00,
2013-06-11 21:05:00,69.9,64.8,29.84,WNW,282,0.0,0.0,84,0.00,,---,0.12,VWS V14.01,2013-06-12 01:05:00,
2013-06-11 21:10:00,69.5,64.5,29.84,WNW,282,0.0,0.0,84,0.00,,---,0.12,VWS V14.01,2013-06-12 01:10:00,
2013-06-11 21:15:00,69.2,64.5,29.84,WNW,282,0.0,0.0,85,0.00,,---,0.12,VWS V14.01,2013-06-12 01:15:00,
2013-06-11 21:20:00,68.9,64.6,29.84,WNW,282,0.0,0.0,86,0.00,,---,0.12,VWS V14.01,2013-06-12 01:20:00,
2013-06-11 21:25:00,68.6,64.2,29.85,WNW,282,0.0,0.0,86,0.00,,---,0.12,VWS V14.01,2013-06-12 01:25:00,
2013-06-11 21:30:00,68.4,64.4,29.85,WNW,282,0.0,0.0,87,0.00,,---,0.12,VWS V14.01,2013-06-12 01:30:00,
2013-06-11 21:35:00,68.2,64.2,29.85,WNW,282,0.0,0.0,87,0.00,,---,0.12,VWS V14.01,2013-06-12 01:35:00,
2013-06-11 21:40:00,68.0,64.3,29.85,WNW,282,0.0,0.0,88,0.00,,---,0.12,VWS V14.01,2013-06-12 01:40:00,
2013-06-11 21:45:00,67.8,64.1,29.85,WNW,282,0.0,0.0,88,0.00,,---,0.12,VWS V14.01,2013-06-12 01:45:00,
2013-06-11 21:50:00,67.6,63.9,29.85,WNW,282,0.0,0.0,88,0.00,,---,0.12,VWS V14.01,2013-06-12 01:50:00,
2013-06-11 21:55:00,67.5,64.2,29.85,WNW,282,0.0,0.0,89,0.00,,---,0.12,VWS V14.01,2013-06-12 01:55:00,
2013-06-11 22:00:00,67.3,64.0,29.85,WNW,282,0.0,0.0,89,0.00,,---,0.12,VWS V14.01,2013-06-12 02:00:00,
2013-06-11 22:05:00,67.2,63.8,29.85,WNW,282,0.0,0.0,89,0.00,,---,0.12,VWS V14.01,2013-06-12 02:05:00,
2013-06-11 22:10:00,67.0,63.7,29.85,WNW,282,0.0,0.0,89,0.00,,---,0.12,VWS V14.01,2013-06-12 02:10:00,
2013-06-11 22:15:00,67.0,64.0,29.86,WNW,282,0.0,0.0,90,0.00,,---,0.12,VWS V14.01,2013-06-12 02:15:00,
2013-06-11 22:20:00,66.9,63.9,29.86,WNW,282,0.0,0.0,90,0.00,,---,0.12,VWS V14.01,2013-06-12 02:20:00,
2013-06-11 22:25:00,66.8,63.8,29.86,WNW,282,0.0,0.0,90,0.00,,---,0.12,VWS V14.01,2013-06-12 02:25:00,
2013-06-11 22:30:00,66.7,63.7,29.86,WNW,282,0.0,0.0,90,0.00,,---,0.12,VWS V14.01,2013-06-12 02:30:00,
2013-06-11 22:35:00,66.6,63.6,29.86,WNW,282,0.0,0.0,90,0.00,,---,0.12,VWS V14.01,2013-06-12 02:35:00,
2013-06-11 22:40:00,66.6,63.9,29.85,WNW,282,0.0,0.0,91,0.00,,---,0.12,VWS V14.01,2013-06-12 02:40:00,
2013-06-11 22:45:00,66.5,63.8,29.85,WNW,282,0.0,0.0,91,0.00,,---,0.12,VWS V14.01,2013-06-12 02:45:00,
2013-06-11 22:50:00,66.4,63.7,29.85,WNW,282,0.0,0.0,91,0.00,,---,0.12,VWS V14.01,2013-06-12 02:50:00,
2013-06-11 22:55:00,66.3,63.6,29.85,WNW,282,0.0,0.0,91,0.00,,---,0.12,VWS V14.01,2013-06-12 02:55:00,
2013-06-11 23:00:00,66.2,63.5,29.85,WNW,282,0.0,0.0,91,0.00,,---,0.12,VWS V14.01,2013-06-12 03:00:00,
2013-06-11 23:05:00,66.0,63.3,29.85,WNW,282,0.0,0.0,91,0.00,,---,0.12,VWS V14.01,2013-06-12 03:05:00,
2013-06-11 23:10:00,65.9,63.5,29.85,WNW,282,0.0,0.0,92,0.00,,---,0.12,VWS V14.01,2013-06-12 03:10:00,
2013-06-11 23:15:00,65.7,63.3,29.85,WNW,282,0.0,0.0,92,0.00,,---,0.12,VWS V14.01,2013-06-12 03:15:00,
2013-06-11 23:20:00,65.6,63.2,29.84,WNW,282,0.0,0.0,92,0.00,,---,0.12,VWS V14.01,2013-06-12 03:20:00,
2013-06-11 23:25:00,65.4,63.0,29.84,WNW,282,0.0,0.0,92,0.00,,---,0.12,VWS V14.01,2013-06-12 03:25:00,
2013-06-11 23:30:00,65.3,62.9,29.84,WNW,282,0.0,0.0,92,0.00,,---,0.12,VWS V14.01,2013-06-12 03:30:00,
2013-06-11 23:35:00,65.2,62.8,29.84,WNW,282,0.0,0.0,92,0.00,,---,0.12,VWS V14.01,2013-06-12 03:35:00,
2013-06-11 23:40:00,65.0,62.6,29.84,WNW,282,0.0,0.0,92,0.00,,---,0.12,VWS V14.01,2013-06-12 03:40:00,
2013-06-11 23:45:00,64.9,62.5,29.84,WNW,282,0.0,0.0,92,0.00,,---,0.12,VWS V14.01,2013-06-12 03:45:00,
2013-06-11 23:50:00,64.8,62.4,29.84,WNW,282,0.0,0.0,92,0.00,,---,0.12,VWS V14.01,2013-06-12 03:50:00,
2013-06-11 23:55:00,64.7,62.3,29.84,WNW,282,0.0,0.0,92,0.00,,---,0.12,VWS V14.01,2013-06-12 03:55:00,